Location: Fontbon
(47.0421°N, 1.7890°E)
Time: 12:26:30
(UTC+00:00)

Daily predictions for brighter satellites

Satellite Brightness Start Highest point End
(mag) Time Altitude Azimuth Time Altitude Azimuth Time Altitude Azimuth
Cosmos 2279 Rocket 4.1 20:05:15 10° N 20:11:30 69° E 20:17:43 10° SSE
Cosmos 44 3.4 20:10:49 10° S 20:14:49 39° ESE 20:18:56 10° NE
Okean-O 2.9 20:11:41 10° SSE 20:15:57 55° ENE 20:20:15 10° N
Spot 2 Rocket 4.1 20:11:53 10° SE 20:16:37 41° ENE 20:21:23 10° N
Cosmos 1869 3.1 20:14:22 10° N 20:17:55 62° E 20:21:25 10° SSE
Okean O Rocket 1.6 20:14:04 10° SSE 20:18:26 76° ENE 20:22:51 10° N
ERS-1 Rocket 3.0 20:14:04 10° SSE 20:19:02 72° ENE 20:24:02 10° N
CZ-4B R/B 3.6 20:14:46 10° S 20:20:08 66° WSW 20:25:38 10° NNW
In-Cosmos 22 Rocket 4.3 20:17:49 10° S 20:23:35 72° E 20:29:17 10° NNE
Meteor 1-21 Rocket 4.2 20:23:02 10° S 20:28:39 75° E 20:34:13 10° NNE
Tiangong -0.8 20:27:03 10° SW 20:29:45 24° SSE 20:32:29 10° ESE
CZ-4 R/B 3.7 20:27:33 10° SW 20:30:22 20° W 20:33:13 10° NW
Cosmos 1867 4.4 20:27:23 10° S 20:32:01 29° ESE 20:36:41 10° NE
IRS-1A Rocket 4.3 20:27:34 10° SSE 20:33:03 78° ENE 20:38:40 10° NNW
SPOT 3 Rocket 4.4 20:28:20 10° SE 20:33:06 37° ENE 20:37:52 10° N
USA 245 3.5 20:30:36 10° SE 20:34:16 43° ENE 20:37:17 10° N
Cosmos 990 Rocket 4.0 20:30:55 10° S 20:35:58 60° ESE 20:41:07 10° NNE
Cosmos 2369 Rocket 2.5 20:30:35 10° SSW 20:36:17 76° WNW 20:41:59 10° NNE
ASTEX 1 3.9 20:34:55 10° NNE 20:39:31 41° E 20:44:06 10° SSE
Cosmos 1340 Rocket 4.2 20:36:41 10° NNW 20:40:14 36° W 20:43:43 10° SSW
RESURS DK-1 4.4 20:41:10 10° N 20:43:45 16° NE 20:46:21 10° E
BREEZE-M DEB (TANK) 2.5 20:41:47 10° SSW 20:43:57 33° SE 20:48:05 10° ENE
Cosmos 1818 3.9 20:38:42 10° NW 20:44:05 63° WSW 20:49:20 10° SSE
Terra 1.9 20:40:05 10° S 20:44:47 78° WSW 20:49:31 10° NNW
ISS -3.2 20:44:18 10° WNW 20:47:37 55° NNE 20:50:52 10° E
Cosmos 2297 Rocket 4.0 20:44:12 10° N 20:48:23 21° NE 20:52:32 10° E
CZ-4B R/B 3.9 20:45:05 10° SSW 20:48:30 39° W 20:52:05 10° NNW
Helios 1B rocket 2.9 20:46:30 10° S 20:50:05 50° W 20:53:42 10° NNW
Cosmos 1515 4.0 20:52:34 10° NNE 20:54:50 26° ENE 20:55:57 19° ESE
Okean 2 Rocket 3.4 20:53:11 10° NNW 20:57:32 66° W 21:01:50 10° S
BlueWalker 3 2.8 20:54:13 10° NW 20:57:45 42° NNE 21:01:15 10° E
IRS-1C Rocket 4.1 20:54:19 13° SSE 20:59:04 70° ENE 21:04:19 10° N
IKONOS-2 4.5 20:58:36 10° NNE 21:02:41 59° E 21:06:44 10° S
Okean 1 Rocket 3.2 20:58:40 10° NNW 21:03:02 74° W 21:07:12 11° S
Cosmos 1975 Rocket 3.9 21:01:02 17° SE 21:03:42 31° E 21:07:30 10° NNE
Cosmos 2098 Rocket 4.2 21:03:09 10° NNE 21:05:55 22° ENE 21:07:42 16° ESE
Cosmos 1455 Rocket 3.1 21:07:10 10° N 21:11:27 64° ENE 21:14:29 19° SSE
Aureole 1 Rocket 4.3 21:05:26 10° S 21:11:59 64° ESE 21:19:24 10° NNE
BREEZE M DEB (TANK) 3.1 21:06:53 10° SW 21:12:20 42° SSE 21:14:50 10° E
Cosmos 1937 Rocket 4.0 21:15:14 16° SSE 21:18:48 39° ESE 21:23:33 10° NE
Ariane Rocket 3.0 21:16:56 17° SSE 21:20:49 84° ENE 21:25:53 10° NNW
Cosmos 2227 Rocket 4.2 21:17:31 10° N 21:21:24 18° NE 21:25:16 10° E
Cosmos 1812 2.7 21:20:34 10° NNW 21:23:40 54° W 21:25:43 19° SSW
Nadezhda 4 Rocket 4.2 21:17:43 10° SSW 21:24:02 76° W 21:30:24 10° N
CZ-4C R/B 2.4 21:24:18 10° SW 21:28:37 61° NW 21:34:09 10° NE
Cosmos 1680 Rocket 4.3 21:23:43 10° N 21:28:44 41° ENE 21:31:58 20° ESE
Cosmos 1025 Rocket 4.2 21:27:49 10° SSW 21:31:56 42° WNW 21:36:06 10° N
PSLV R/B 3.1 21:33:02 34° SSE 21:34:16 80° ENE 21:37:24 10° N
Cosmos 2195 Rocket 4.5 21:28:27 10° S 21:34:36 87° E 21:40:55 10° N
Gbstr 26 Del rocket 3.7 21:29:42 10° WNW 21:34:42 79° NNE 21:39:43 16° ESE
Cosmos 923 Rocket 4.1 21:36:10 10° NNW 21:41:21 68° ENE 21:44:16 26° SE
Cosmos 2026 Rocket 3.9 21:36:28 14° S 21:41:46 84° E 21:47:51 10° N
Cosmos 2285 Rocket 4.4 21:38:25 10° SSW 21:44:45 68° WNW 21:51:12 10° NNE
DELTA 2 R/B (1) 4.0 21:40:38 10° WSW 21:45:44 39° S 21:48:08 26° SE
Cosmos 1656 3.9 21:43:26 21° S 21:46:59 50° ESE 21:52:18 10° NE
Lacrosse 5 rocket 3.1 21:48:24 10° NW 21:51:47 27° NNE 21:55:12 10° E
Cosmos 1782 4.4 21:50:33 10° NNE 21:53:17 19° ENE 21:54:06 18° E
Okean O Rocket 4.3 21:53:26 10° WSW 21:55:11 12° W 21:56:55 10° WNW
ARIANE 5 R/B 4.0 21:56:12 20° ESE 21:58:01 27° ENE 22:01:43 10° N
Cosmos 1553 Rocket 4.1 21:56:01 10° N 22:02:18 69° E 22:05:48 28° SSE
Cosmos 1544 Rocket 3.6 21:58:12 10° N 22:02:34 69° ENE 22:04:13 37° SSE
Cosmos 2263 Rocket 4.2 21:59:26 10° N 22:03:28 20° NE 22:07:28 10° E
Cosmos 1400 Rocket 3.0 21:59:58 10° N 22:03:43 52° ENE 22:04:37 41° ESE
Tiangong -0.3 22:03:31 10° WSW 22:05:01 21° SW 22:05:01 21° SW
Cosmos 1898 Rocket 3.9 22:02:18 10° SW 22:07:26 62° WNW 22:12:39 10° NNE
Meteor 2-20 Rocket 4.5 22:02:54 10° N 22:08:50 63° ENE 22:11:37 31° SSE
Cosmos 1092 Rocket 4.3 22:03:40 14° SSW 22:09:10 70° W 22:15:28 10° N
Cosmos 1867 4.3 22:10:01 10° SW 22:15:20 54° NW 22:20:42 10° NNE
CZ-2C R/B 4.4 22:11:44 10° NNE 22:16:07 37° E 22:17:04 34° SE
Cosmos 2228 3.3 22:12:30 10° NNW 22:16:42 61° W 22:18:20 34° SSW
RESURS DK-1 2.3 22:17:42 10° NW 22:21:39 65° WSW 22:22:33 48° S
ISS -2.6 22:21:12 10° WNW 22:23:45 31° WSW 22:23:45 31° WSW
ATLAS 2AS CENTAUR R/B 3.9 22:18:18 10° NNW 22:24:31 36° NNE 22:30:38 10° E
S3M 4.4 22:18:46 10° N 22:24:54 52° ENE 22:27:41 31° SE
DELTA 2 DEB (DPAF) 3.7 22:21:06 10° NNE 22:25:01 75° ESE 22:25:52 52° S
Helios 1B 4.4 22:28:35 10° NNE 22:32:53 74° ESE 22:33:55 50° S
Cosmos 2297 Rocket 2.1 22:27:29 10° NNW 22:33:11 87° WSW 22:35:26 38° SSE
BlueWalker 3 2.1 22:31:57 10° WNW 22:35:20 49° SW 22:35:20 49° SW
Cosmos 2058 2.7 22:37:54 59° SE 22:38:20 66° E 22:42:16 10° NNE
USA 215 4.2 22:33:37 10° E 22:39:48 47° NNE 22:45:59 10° NW
Cosmos 1980 Rocket 3.4 22:40:42 23° ESE 22:41:08 23° ESE 22:45:28 10° NE
Cosmos 2098 Rocket 4.3 22:40:59 10° NW 22:43:58 26° W 22:45:08 22° WSW
Cosmos 1697 Rocket 2.9 22:42:33 40° SSE 22:44:08 52° ESE 22:49:38 10° NE
ALOS 2 3.2 22:47:22 38° ESE 22:48:25 45° ENE 22:52:37 10° N
Cosmos 1892 Rocket 4.4 22:48:55 33° E 22:49:12 34° E 22:53:05 10° NNE
Cosmos 1655 Rocket 4.4 22:51:12 35° SE 22:53:28 49° E 22:59:34 10° NNE
Spot 4 3.8 22:56:33 49° SE 22:57:50 74° ENE 23:02:38 10° N
Cosmos 2360 4.4 22:55:02 22° SW 22:58:44 70° WNW 23:04:26 10° NNE
CZ-4C R/B 3.3 22:58:07 10° N 23:01:49 68° WNW 23:02:19 59° WSW
Cosmos 2227 Rocket 2.2 23:00:39 10° NNW 23:06:23 81° ENE 23:08:19 43° SE
Cosmos 1356 Rocket 3.4 23:09:29 10° N 23:13:31 62° ENE 23:13:51 59° ESE
MetOp-A 3.5 23:13:46 55° WSW 23:13:53 56° WSW 23:17:39 10° NNW
Gbstr 26 Del rocket 4.4 23:16:06 10° WNW 23:21:11 38° SW 23:21:44 37° SSW
BREEZE-M DEB (TANK) 2.8 23:15:58 10° WNW 23:21:39 63° N 23:22:18 48° ENE
Meteor 2-3 Rocket 3.9 23:21:27 45° SSE 23:23:03 63° E 23:28:45 10° NNE
Cosmos 1315 Rocket 2.8 23:20:07 10° N 23:23:57 63° ENE 23:24:01 63° E
Cosmos 468 4.5 23:20:29 10° NNW 23:25:50 84° ENE 23:27:14 51° SSE
Cosmos 1782 3.8 23:25:07 10° NNW 23:28:23 31° W 23:28:26 31° W
Lacrosse 5 rocket 1.1 23:25:36 10° NW 23:29:18 76° W 23:29:18 76° W
Cosmos 614 Rocket 4.3 23:25:57 10° NNW 23:30:58 58° ENE 23:32:28 41° ESE
Cosmos 1441 Rocket 3.2 23:31:38 64° NNE 23:31:38 64° NNE 23:34:38 10° NNE
USA 290 3.5 23:28:31 10° N 23:31:24 36° NE 23:31:24 36° NE
Spot 1 4.2 23:29:04 10° NNE 23:33:42 60° ESE 23:34:08 57° SE
ARIANE 5 R/B 3.5 23:33:35 34° WSW 23:34:12 36° W 23:38:17 10° NNW
ATLAS 5 CENTAUR R/B 3.7 23:34:50 10° NNW 23:38:22 25° NE 23:42:31 10° E
Cosmos 1862 3.9 23:40:44 41° W 23:40:52 41° WNW 23:44:21 10° N
Cosmos 1933 3.5 23:37:24 10° NNW 23:41:09 55° W 23:41:09 55° W
Cosmos 1125 Rocket 3.4 23:40:24 54° SSW 23:41:38 84° ESE 23:46:54 10° NNE
EO 1 Delta rocket 3.9 23:45:10 58° S 23:46:08 88° WSW 23:51:31 10° N
Cosmos 2263 Rocket 2.1 23:42:32 10° NNW 23:48:12 89° NE 23:49:50 48° SSE
